Wind_Speed
20 23 23 20 21 20 19 18 18 19 21 22 21 20 20 19 21 22 22 22 21 20 20 20 19 18 18 18 18 18 18 19 20 21 20 20 19 19 19 19 19 20 19 19 19 19 18 17 18 18 20 20 19 20 23 24 25 23 23 24 23 23 24 25 26 26 26 26 26 26 25 24 24 24 23 22 24 25 25 26 26 26 25 23 22
22 23 22 21 21 20 20 19 18 19 20 22 21 20 20 20 21 22 22 22 21 20 20 19 19 19 18 18 18 18 18 19 20 20 20 19 18 18 19 19 20 20 19 19 18 18 17 17 17 17 18 18 18 19 22 23 22 22 22 23 23 25 26 26 26 26 27 27 27 26 25 24 23 23 23 22 22 23 24 25 25 25 24 22 22
26 23 21 21 21 21 20 19 19 19 20 22 21 20 20 20 22 22 22 22 21 20 20 19 19 19 18 18 18 18 18 19 19 19 19 19 19 19 19 19 20 20 19 19 18 17 16 16 16 16 16 15 17 17 18 19 19 19 20 22 23 25 26 26 26 25 25 26 26 26 25 24 23 22 21 21 21 21 21 22 22 23 22 21 22
27 23 21 21 21 22 21 20 19 19 21 21 22 21 20 21 22 22 22 21 21 21 20 19 19 19 18 18 18 18 18 19 19 19 19 19 19 19 19 19 19 19 19 19 18 17 16 15 15 15 14 14 17 16 14 15 17 18 20 22 23 22 23 24 24 23 23 23 22 23 25 24 22 22 21 20 20 19 19 20 20 20 20 20 20
27 23 21 21 22 22 21 20 19 20 20 21 22 21 21 21 22 22 21 21 21 21 20 19 19 19 18 18 18 18 18 18 18 18 18 20 19 18 18 18 18 18 18 18 18 17 16 15 15 15 13 15 18 16 14 16 18 19 20 22 22 21 22 23 23 24 22 20 19 20 22 22 22 20 20 20 19 20 19 19 18 19 19 19 19
27 23 21 21 22 22 21 20 20 20 20 21 22 22 21 21 22 22 21 21 21 20 19 19 19 18 18 18 18 18 18 17 18 16 18 20 19 17 17 17 17 17 17 17 17 16 16 15 15 13 13 16 18 16 16 19 19 19 19 19 18 18 19 18 20 22 21 19 16 17 20 21 21 19 18 18 19 20 20 19 19 19 19 18 18
25 23 20 20 22 21 21 21 20 20 20 21 22 23 22 21 22 21 21 21 21 20 19 18 18 18 17 18 18 18 17 17 17 16 19 21 17 16 17 16 16 16 16 15 15 16 15 14 14 12 13 17 18 17 19 19 19 18 16 15 14 12 11 10 10 9 12 18 16 16 19 20 21 18 17 17 18 19 19 19 19 19 19 18 18
22 21 19 20 22 22 21 21 21 21 20 20 22 23 22 22 22 21 20 20 20 19 18 18 18 18 18 18 18 17 17 17 17 17 21 19 16 16 16 15 15 14 14 14 14 14 14 13 12 10 12 17 17 17 19 19 17 16 13 12 11 11 13 14 13 8 9 14 17 18 19 19 19 17 17 17 18 18 17 18 19 19 19 19 19
19 18 18 19 21 21 21 21 21 21 20 20 22 23 23 22 21 21 21 20 19 19 18 18 18 18 18 17 17 17 16 16 17 17 20 19 16 15 16 15 14 13 12 12 13 12 12 11 11 10 11 15 17 18 18 17 15 13 12 11 11 13 17 19 20 20 19 18 18 18 17 17 18 17 17 17 17 17 17 17 19 19 19 19 19
19 17 17 19 21 21 21 21 21 20 20 20 22 23 23 22 21 22 21 20 18 18 17 17 18 17 16 16 17 17 16 17 17 17 19 18 15 15 15 14 13 13 12 11 11 11 10 10 11 10 10 13 16 18 17 15 13 12 12 12 14 17 20 20 20 22 22 19 17 17 17 17 17 17 17 16 17 17 18 18 18 18 18 19 19
19 17 16 18 21 20 21 21 20 20 20 20 21 23 23 21 22 23 21 19 18 18 17 17 17 16 15 16 17 18 17 17 17 17 17 16 14 15 15 13 12 11 11 11 10 10 10 10 10 10 10 12 15 17 16 14 13 13 14 15 17 20 21 22 21 20 19 17 17 17 17 16 16 17 16 15 16 17 18 19 19 18 18 18 19
20 17 16 19 20 20 21 20 20 20 20 21 21 22 21 21 22 22 19 18 18 17 16 17 17 16 15 16 17 18 17 17 16 16 16 15 14 14 14 12 11 10 11 10 9 9 9 9 8 9 10 12 15 16 16 14 14 14 15 16 18 20 19 20 20 18 17 17 17 18 17 17 17 17 16 15 15 16 17 18 18 18 18 19 19
21 17 16 20 20 19 20 20 20 20 20 22 22 21 20 20 20 20 18 17 17 16 16 17 17 16 15 15 17 17 17 16 16 17 16 14 14 13 13 11 11 11 10 9 8 8 7 7 7 9 11 13 15 16 16 15 14 15 15 17 18 19 19 19 17 15 15 16 19 19 19 19 18 17 16 15 16 16 16 17 17 18 18 19 19
21 17 18 21 20 19 20 20 20 20 21 22 22 21 20 20 19 18 17 16 15 14 16 17 18 16 15 17 17 17 18 17 16 16 15 14 13 12 12 12 12 11 9 8 7 6 6 6 7 10 13 14 16 17 16 15 14 15 16 16 17 18 19 18 14 14 15 16 19 19 19 18 17 17 16 16 17 17 17 17 17 17 18 18 18
20 18 19 21 20 19 19 20 20 21 22 22 22 21 20 20 19 17 16 15 14 14 16 17 18 16 16 17 17 17 18 18 17 16 14 14 12 11 12 12 11 10 8 7 7 6 6 6 8 10 13 14 16 17 15 14 14 15 16 17 17 17 19 18 15 16 16 18 19 18 18 17 16 16 16 16 16 16 16 17 16 16 17 17 17
19 19 21 22 20 19 19 19 20 21 22 21 22 21 20 20 18 17 16 15 15 15 17 18 18 17 17 17 16 16 17 18 17 15 14 13 12 12 13 12 10 9 7 7 7 7 6 7 9 11 13 14 16 15 14 14 14 15 17 20 20 18 19 18 17 17 18 18 18 17 17 17 16 15 15 16 16 16 16 16 16 16 16 16 16
20 19 21 22 21 21 20 20 20 21 21 21 21 20 20 19 18 17 17 16 17 17 17 18 18 18 17 16 15 14 15 16 16 14 13 12 12 13 12 11 10 8 7 7 7 7 7 8 9 11 13 15 16 15 14 14 14 16 19 22 22 21 20 18 18 17 16 16 17 17 18 17 16 15 16 16 16 16 15 15 15 15 15 16 16
21 21 22 23 22 21 20 20 20 20 20 20 20 19 19 18 18 17 16 18 18 17 16 17 18 18 17 15 14 12 13 15 15 14 13 12 12 12 11 11 9 7 6 7 7 7 7 9 10 11 12 14 15 14 14 14 15 16 19 21 20 21 19 17 16 14 13 15 18 18 17 16 15 15 15 15 15 15 15 15 15 15 15 16 16
22 22 23 23 22 20 20 20 20 20 19 19 19 19 18 18 18 16 16 18 17 16 16 17 17 18 17 15 14 13 13 13 15 14 13 12 11 11 10 9 7 5 5 6 7 7 7 9 10 11 12 14 15 14 14 14 15 16 19 22 21 19 15 13 12 11 12 16 19 18 17 16 15 14 15 15 15 15 15 15 15 15 15 15 15
22 24 24 22 22 20 20 20 19 18 18 18 19 18 18 17 16 16 17 17 16 15 16 16 16 17 17 15 14 14 13 13 14 14 13 11 10 10 9 8 6 5 4 6 8 7 7 9 11 12 14 15 16 15 14 14 14 15 17 20 19 15 10 10 10 12 14 17 18 18 16 15 14 14 15 15 15 15 14 14 14 14 14 14 14
23 24 24 22 21 20 20 19 18 17 17 17 18 18 17 16 16 16 16 16 15 14 15 15 16 16 15 15 15 14 13 13 13 13 13 11 10 9 8 7 6 5 4 6 8 8 8 9 11 14 16 17 17 16 15 13 13 13 16 17 17 14 10 11 13 15 17 18 19 18 16 14 14 14 14 14 14 14 14 13 13 13 14 14 14
24 25 24 23 21 20 21 20 18 17 16 16 18 18 16 16 16 16 16 14 14 14 14 14 14 14 15 16 15 15 14 13 13 14 14 12 11 10 9 7 6 6 5 7 9 8 8 9 11 13 16 17 17 16 14 13 11 11 13 14 14 14 12 12 14 15 17 19 18 16 15 14 14 14 14 14 13 13 14 13 13 14 14 14 14
25 27 25 23 21 21 23 22 20 18 15 17 18 18 17 17 17 17 15 14 14 14 14 13 13 13 16 17 17 16 15 14 13 13 14 13 12 10 9 8 8 8 7 8 9 9 8 9 11 12 15 16 15 15 13 11 10 9 11 12 12 15 13 13 13 14 16 18 17 15 13 13 13 14 14 13 13 13 13 13 13 13 13 14 14
26 28 28 26 23 23 26 25 25 23 20 19 19 18 17 17 18 17 15 14 14 13 13 12 13 14 16 17 17 17 16 15 14 12 13 13 12 10 9 8 8 10 10 9 10 10 9 9 10 12 14 14 13 12 11 9 9 8 9 10 13 15 12 13 13 14 15 17 16 14 13 13 13 13 13 13 13 13 13 12 12 12 13 13 13
28 30 31 29 27 28 28 28 29 29 26 24 22 20 18 17 17 16 15 15 14 14 13 12 14 15 16 16 16 18 17 17 16 14 14 13 12 11 10 9 8 11 12 10 10 11 10 9 9 11 13 12 12 10 7 6 7 6 7 9 15 15 11 13 14 13 13 15 16 14 13 13 13 12 12 13 12 12 12 12 12 12 12 12 12
31 31 29 26 28 31 29 28 30 30 30 30 28 26 21 19 19 17 16 16 15 15 15 15 15 16 17 16 15 17 18 19 18 15 15 14 13 11 10 8 7 10 12 11 11 11 10 9 8 9 11 11 9 7 5 4 4 2 5 11 19 15 12 13 12 12 12 13 14 14 14 13 12 12 12 12 12 12 13 13 12 12 13 12 12
27 25 22 23 25 29 29 28 29 29 29 29 30 30 26 22 20 19 19 18 18 17 18 17 17 18 17 16 15 16 18 19 18 16 16 14 12 10 8 7 7 11 12 11 12 12 10 9 8 8 9 8 6 6 8 8 3 2 3 12 19 17 14 12 11 11 11 12 12 12 13 13 12 13 13 13 12 12 13 14 14 13 13 13 13
25 24 22 25 25 27 30 30 29 29 30 28 29 31 28 26 23 22 22 21 20 19 19 19 18 18 17 16 15 16 18 18 18 17 16 14 12 10 9 8 8 10 12 11 11 12 12 10 8 8 7 6 5 6 8 8 4 3 1 8 17 18 15 12 11 11 10 11 12 11 12 12 12 13 13 13 13 14 15 15 14 14 14 13 13
22 26 25 26 28 29 31 31 29 29 32 31 30 30 29 29 28 26 25 23 22 20 20 20 19 19 18 17 16 17 19 18 18 17 17 16 14 12 9 8 7 8 11 11 9 10 12 11 10 9 8 7 9 8 7 7 5 3 1 6 15 17 15 14 12 11 10 10 12 11 10 11 11 12 13 12 13 15 15 14 14 13 13 13 13
17 26 29 30 30 29 30 31 29 29 34 35 33 31 29 30 30 28 26 24 23 22 21 20 19 19 19 18 16 17 19 19 19 18 17 17 15 14 11 10 9 8 8 8 9 9 9 11 11 10 10 11 12 11 9 8 7 5 3 6 13 16 14 16 13 9 9 11 12 11 11 11 11 12 12 12 13 15 14 13 12 11 11 13 12
14 25 30 32 31 29 30 30 29 30 36 36 34 31 29 30 30 29 28 25 25 23 21 21 19 19 19 19 18 18 19 20 20 19 18 17 16 14 13 13 11 8 7 6 8 8 7 9 9 9 11 14 13 12 11 10 8 8 5 7 12 15 14 16 13 8 8 10 11 12 12 11 10 12 13 14 15 14 13 11 10 9 8 9 10
16 26 30 31 31 29 30 30 28 30 35 35 33 32 29 28 28 27 27 24 25 24 21 20 20 19 19 19 19 19 20 20 20 19 18 17 15 14 13 11 9 7 7 6 6 7 8 8 8 7 8 11 12 12 9 9 10 8 5 7 11 14 14 14 12 9 9 10 11 13 12 11 11 13 14 14 14 13 10 9 8 7 7 6 6
19 25 30 31 30 29 30 30 27 29 33 33 31 31 28 26 26 25 24 23 23 23 21 20 20 20 20 20 20 20 20 20 19 19 17 16 15 13 12 9 7 7 8 8 6 7 10 9 7 5 4 7 11 12 11 10 8 7 7 8 12 14 14 13 13 13 11 11 12 13 12 12 13 13 12 12 12 11 9 7 7 7 7 6 6
18 22 27 29 28 27 29 29 27 26 29 31 29 28 26 25 26 24 22 21 20 21 21 19 19 20 20 20 21 20 20 21 20 18 16 16 15 13 12 10 8 9 9 9 7 7 9 7 5 4 7 11 15 15 12 8 7 8 9 10 13 15 15 15 15 16 14 12 13 13 12 12 12 11 10 10 9 9 8 7 7 7 6 6 5
17 20 23 25 26 26 26 27 26 23 23 27 27 26 25 25 25 24 22 21 20 20 20 19 19 20 20 21 21 21 21 21 19 17 16 15 15 13 12 11 8 10 10 9 8 7 7 5 3 5 11 13 12 14 13 11 10 11 11 11 14 16 18 18 18 19 17 14 14 13 12 12 10 9 9 9 9 8 8 7 7 6 7 6 5
15 18 22 23 24 24 25 25 25 23 20 22 26 25 24 23 23 23 22 22 21 20 20 19 20 20 20 22 21 21 22 21 18 17 17 14 12 11 12 11 9 11 11 10 9 5 6 4 2 7 13 9 9 13 14 12 14 14 12 14 17 18 19 19 18 19 17 15 15 13 12 10 10 9 9 9 9 9 8 7 6 7 7 6 6
13 15 22 23 22 23 23 24 25 23 19 22 26 25 23 22 22 22 21 22 21 21 20 19 21 21 21 23 22 22 22 20 18 18 16 13 12 12 13 12 11 13 12 11 9 5 8 7 7 10 9 9 12 16 16 16 16 15 14 15 18 19 18 18 17 17 17 16 15 13 10 9 9 9 10 10 9 9 9 8 7 7 6 5 6
11 14 19 21 22 22 22 23 24 23 21 22 25 23 21 19 20 20 20 20 20 20 20 19 21 22 22 23 23 23 22 20 18 18 16 15 14 14 15 13 12 14 13 11 9 6 7 8 10 10 8 12 17 16 17 19 17 16 16 16 17 17 17 17 16 15 15 16 15 13 11 10 9 10 10 10 10 10 10 10 8 7 6 5 5
15 15 16 19 21 21 21 21 21 22 21 21 23 23 19 18 19 19 17 18 19 21 21 20 21 22 22 23 24 23 22 20 18 17 17 16 15 14 15 14 12 13 12 10 8 6 7 9 9 9 9 14 17 18 20 20 20 20 19 17 17 17 17 16 14 14 15 15 14 13 11 11 10 10 10 11 11 10 11 12 10 9 9 8 7
17 16 14 16 19 20 21 21 21 22 22 22 24 23 21 19 18 18 18 18 19 21 22 21 22 23 23 23 24 23 22 20 18 18 17 15 15 14 13 13 12 12 12 10 9 7 9 11 11 12 14 16 17 20 20 19 21 21 18 16 15 14 14 13 12 13 14 14 13 13 12 11 11 11 10 11 11 9 10 12 10 11 12 11 9
16 14 13 13 17 20 21 21 22 24 25 25 26 25 23 22 19 18 19 19 18 19 22 23 23 22 22 23 23 23 21 20 19 19 18 15 14 13 13 12 11 12 11 10 9 8 9 10 12 15 17 18 19 19 19 20 20 18 15 15 13 12 10 11 12 12 13 13 12 13 13 12 11 11 10 11 11 10 10 11 10 11 12 11 10
19 14 11 11 16 19 20 22 23 25 26 27 28 26 23 23 22 20 21 20 19 19 21 23 23 22 22 22 23 23 22 21 20 19 18 16 15 14 13 12 13 13 11 10 10 9 10 10 13 16 17 19 20 21 23 21 16 16 15 13 11 10 9 10 11 11 12 12 12 13 13 12 12 12 11 11 11 10 10 9 9 9 9 10 11
23 14 8 14 20 20 20 21 23 24 26 27 26 25 24 24 22 20 20 20 18 17 19 22 22 22 22 21 22 22 22 21 20 19 18 16 16 15 14 14 14 12 11 12 11 10 11 12 14 17 17 18 18 22 23 17 16 19 15 8 5 5 6 6 7 8 9 11 12 12 11 11 12 11 11 12 12 11 10 9 9 8 9 11 12
23 17 15 21 24 24 23 21 21 22 23 25 24 24 25 24 21 18 18 18 16 14 16 20 22 22 22 22 21 22 21 20 19 18 16 14 14 14 15 15 14 11 11 13 12 11 11 13 16 17 18 18 18 21 18 14 20 21 10 4 4 4 2 4 6 5 6 9 8 10 10 11 12 11 10 12 13 13 12 12 10 10 11 13 13
25 24 26 28 27 26 26 23 20 19 19 21 22 23 25 25 22 18 17 15 13 14 15 18 21 22 22 22 21 22 21 19 18 17 16 14 13 14 16 16 14 12 13 13 13 12 12 14 17 17 18 19 20 21 17 14 21 19 10 7 5 2 2 7 8 3 4 7 6 9 11 12 13 12 12 15 15 14 14 14 13 13 14 14 13
28 31 34 32 29 27 28 27 23 20 19 20 21 23 26 28 27 23 20 18 16 17 18 18 22 24 23 23 22 22 21 19 18 16 15 15 13 14 16 16 14 14 13 12 12 13 13 14 17 17 17 18 20 22 18 16 18 14 11 12 6 3 8 11 7 1 3 4 4 9 12 13 14 14 17 19 16 14 14 14 15 14 14 13 12
30 33 36 35 31 29 27 27 27 26 23 21 23 25 28 30 29 27 25 24 22 20 20 21 23 24 23 24 24 22 22 20 18 17 16 15 13 13 14 14 14 14 14 12 12 12 12 14 17 18 17 17 19 23 22 19 17 12 12 12 5 8 18 16 8 4 3 2 4 9 10 9 10 13 18 18 14 14 15 15 15 14 13 11 11
33 33 34 33 31 31 28 27 29 31 27 25 25 26 28 29 27 26 26 26 25 23 22 23 23 23 22 24 24 22 21 20 19 18 16 14 12 12 13 14 14 14 14 13 11 10 11 14 16 16 17 17 18 22 24 22 18 13 12 10 7 14 21 17 13 11 6 2 4 6 6 6 10 15 17 14 13 16 16 16 15 13 12 11 10
32 30 31 31 32 32 30 29 29 32 32 28 27 27 27 28 27 26 25 25 25 24 24 24 23 23 23 23 23 22 20 19 17 17 15 14 12 13 15 14 14 14 12 11 10 10 11 14 16 16 17 18 18 20 25 25 20 16 14 11 13 18 18 15 16 15 9 6 4 3 5 11 14 18 17 12 13 17 18 17 14 12 12 11 11
25 26 28 29 31 31 32 31 25 27 32 30 28 28 26 26 26 26 26 24 25 25 24 24 24 22 22 23 22 21 19 17 15 15 14 13 12 12 14 14 14 13 12 11 10 11 11 13 15 16 17 19 19 20 25 26 21 16 16 15 17 19 15 12 14 15 11 8 6 5 8 13 14 15 16 14 14 17 19 18 16 14 13 11 10
17 19 22 25 28 28 28 28 23 22 28 30 29 28 26 26 25 26 27 26 26 27 26 26 24 23 24 24 22 21 20 18 16 13 12 12 11 10 12 12 13 13 12 11 11 13 13 13 13 14 16 18 21 21 22 24 21 16 15 17 20 21 17 14 17 18 13 9 8 7 10 13 13 15 15 12 14 18 20 20 18 14 12 10 8
Wind_Direction
152 157 156 160 158 160 159 159 159 158 155 153 154 151 148 145 143 141 139 136 132 129 126 125 124 123 121 119 115 110 105 100 98 99 98 97 96 94 91 89 86 86 88 86 86 87 86 82 76 76 79 82 85 91 95 95 93 90 87 88 89 91 94 94 93 91 91 90 89 88 88 88 88 88 87 85 85 85 85 85 85 85 83 83 83
156 155 155 160 160 162 162 163 162 161 159 155 155 154 150 147 146 144 142 137 134 131 129 128 126 125 123 121 117 112 106 103 103 103 101 100 97 94 92 89 86 86 87 86 86 87 87 83 78 80 83 86 87 91 97 97 96 94 91 91 92 92 93 94 93 92 91 91 89 86 85 86 86 87 87 86 84 82 82 83 83 84 84 84 83
154 154 155 158 160 162 164 165 163 164 161 157 157 156 152 150 149 147 144 139 136 133 131 130 129 127 125 122 118 113 108 106 105 104 102 101 97 96 95 90 88 86 86 86 85 86 88 86 83 85 86 87 88 93 97 98 101 102 99 96 95 92 91 90 90 90 90 89 88 86 83 82 82 82 83 83 83 82 81 81 82 82 82 82 80
152 153 154 157 160 161 164 165 164 165 163 159 158 158 155 153 151 149 145 141 137 134 133 132 130 128 125 123 119 114 111 108 106 105 104 102 99 99 97 93 90 87 86 85 85 86 87 87 86 87 91 95 98 97 93 100 106 106 107 105 102 97 93 90 87 85 83 82 84 86 83 80 78 78 80 81 82 82 83 83 84 84 83 80 78
151 153 154 154 159 162 165 165 165 166 165 161 160 160 157 155 153 150 146 142 138 135 134 133 132 129 125 122 119 116 112 110 109 107 106 104 102 102 99 96 94 90 87 84 85 85 84 87 89 90 96 106 108 104 98 106 108 103 106 107 104 100 97 93 88 83 78 77 78 84 85 82 77 76 79 81 83 83 83 84 85 86 85 83 81
149 153 152 152 159 163 166 166 167 167 165 162 161 161 159 157 154 151 147 142 138 135 134 134 133 130 126 122 119 118 114 113 111 109 108 105 105 104 100 99 97 93 89 86 85 84 82 81 87 89 98 112 113 111 110 110 108 104 104 104 100 98 99 94 91 87 80 80 80 83 85 83 79 76 78 80 83 84 84 84 84 86 85 85 84
148 150 152 153 158 162 167 168 167 167 166 162 162 161 160 158 154 150 146 142 138 135 134 134 133 131 127 123 121 120 116 115 113 109 108 107 109 108 103 102 99 96 91 89 88 85 83 78 81 83 99 117 118 116 116 112 109 106 103 100 95 93 93 80 86 91 88 89 83 83 86 85 83 79 78 80 82 82 82 82 82 83 83 83 83
143 146 154 155 158 162 167 168 167 167 164 162 163 162 160 158 153 149 144 142 138 134 134 133 132 131 129 127 126 121 116 118 114 110 113 113 115 111 106 106 101 99 95 93 90 85 84 81 80 76 97 118 123 121 119 114 111 108 104 98 88 76 70 69 80 101 127 107 87 87 90 90 88 83 81 80 81 83 84 83 81 82 81 82 82
139 146 158 157 157 162 167 166 166 165 162 161 163 162 160 157 153 150 146 141 137 135 136 136 136 134 132 132 131 125 119 119 114 115 121 119 117 113 112 111 104 100 95 95 90 84 82 81 81 76 94 117 126 126 122 117 114 110 104 92 76 64 66 78 87 96 116 115 96 92 90 89 88 84 82 79 79 83 86 83 81 83 83 83 83
142 153 163 158 155 161 165 164 165 164 162 161 162 162 159 156 153 153 149 142 138 138 139 140 140 136 133 134 136 132 125 121 117 119 122 118 117 116 115 113 108 104 100 97 92 90 87 82 82 79 90 113 126 130 126 121 115 105 94 81 71 71 79 88 89 92 103 105 98 93 90 91 89 85 81 81 83 83 83 82 83 85 84 85 85
145 159 164 156 153 160 162 162 164 163 163 161 159 159 158 154 153 153 150 145 142 141 142 144 142 137 133 132 140 138 131 127 122 123 122 117 119 118 118 119 115 112 107 102 98 96 92 85 83 80 89 108 125 133 131 122 111 99 89 82 76 77 85 92 92 92 95 93 91 93 95 94 88 85 83 84 87 84 82 84 86 85 85 87 87
149 158 158 152 152 159 160 161 162 162 162 158 156 156 155 153 153 153 149 146 143 141 143 146 144 141 135 128 139 142 137 133 129 129 125 122 126 124 124 127 121 117 109 105 106 101 92 86 82 83 92 107 124 134 133 121 108 99 90 81 73 73 83 96 98 95 92 87 86 89 92 90 87 88 88 85 86 86 84 85 86 85 85 88 88
149 153 150 148 151 158 158 160 161 160 159 155 156 154 152 151 154 154 149 145 142 141 142 147 148 145 136 129 137 144 143 138 136 135 130 130 134 132 131 131 124 117 111 108 108 98 88 84 81 90 101 111 123 133 131 121 110 99 86 73 66 72 87 100 103 96 91 90 89 91 91 91 92 91 89 86 86 88 86 84 86 85 86 88 89
148 147 147 147 149 157 158 159 159 157 157 155 155 153 151 151 156 157 150 145 143 143 142 146 148 144 138 134 137 144 147 144 143 141 137 138 141 143 140 133 124 117 113 110 100 87 82 83 83 99 110 117 124 130 129 121 108 90 77 67 66 80 95 101 100 94 92 95 96 96 95 93 93 91 89 87 87 88 86 85 86 87 89 90 90
151 145 146 145 147 155 156 158 157 155 155 154 154 153 153 155 158 157 150 147 146 146 142 141 143 142 140 139 138 143 150 149 148 146 142 145 151 154 140 129 126 121 118 112 99 84 80 83 85 103 118 123 126 129 125 112 95 83 74 65 69 93 107 105 96 92 94 99 100 99 97 94 93 92 90 89 89 88 86 87 87 88 90 89 90
151 145 145 145 148 153 154 155 155 154 154 153 154 155 156 157 156 153 151 150 147 143 139 138 141 142 143 144 143 147 152 150 150 151 150 151 155 151 136 131 133 126 120 111 99 90 86 88 89 102 120 129 130 129 118 102 90 83 76 67 75 100 112 105 95 91 94 100 104 103 98 95 94 92 91 90 91 90 89 90 89 90 90 89 90
147 145 145 147 148 151 153 152 152 154 153 152 155 156 157 158 155 153 152 151 147 143 142 143 145 146 148 149 148 152 156 153 152 156 158 155 151 144 137 136 137 132 119 101 97 100 97 95 95 100 116 133 135 127 112 100 95 88 78 73 83 104 112 106 98 95 94 97 101 98 94 95 94 93 93 92 92 92 91 90 89 90 90 89 90
144 146 145 146 148 150 150 148 150 152 152 153 156 158 158 159 158 157 156 154 151 148 150 152 152 152 152 153 152 154 156 157 156 160 163 157 148 141 139 139 137 135 113 99 106 112 106 104 102 100 111 134 138 126 113 105 98 88 78 77 92 110 114 106 100 94 91 94 96 95 95 96 96 94 94 92 91 91 89 89 89 90 89 88 88
143 144 140 142 145 146 147 146 149 150 151 154 158 160 160 162 162 163 161 158 156 156 160 160 158 156 156 157 156 154 154 158 160 163 165 160 154 146 143 143 139 128 109 114 123 119 116 115 109 102 109 131 139 127 117 109 98 89 81 83 98 111 107 97 91 88 91 98 100 98 95 95 96 96 95 93 91 91 90 89 91 91 90 89 87
141 140 137 139 143 144 145 144 148 150 152 156 160 162 163 166 166 166 163 161 162 164 166 167 163 160 160 159 157 158 158 160 163 166 168 165 162 158 154 150 141 128 124 138 136 126 124 123 115 107 110 124 134 128 117 109 102 96 85 87 103 111 105 92 87 92 98 104 107 104 100 100 100 98 97 96 94 94 93 92 92 92 92 91 90
140 138 137 139 141 142 142 142 147 148 150 157 162 164 165 167 166 165 165 165 167 168 169 169 167 164 163 161 160 164 166 166 167 170 173 175 176 175 170 166 158 143 143 151 143 130 123 128 122 113 115 121 126 125 117 111 105 95 86 89 106 115 110 96 93 98 101 104 108 107 107 106 102 99 99 99 98 97 97 96 94 91 91 91 90
137 135 136 139 140 142 142 141 143 146 153 161 165 164 165 166 167 169 169 170 171 172 172 171 169 166 167 167 167 171 172 170 172 174 176 180 184 186 183 182 177 162 153 156 148 133 123 132 131 124 125 126 126 125 119 113 100 87 84 87 108 122 112 97 97 100 100 101 103 104 105 104 103 102 101 99 99 99 97 96 94 93 92 91 91
136 135 137 138 142 145 143 140 139 145 160 170 170 167 166 169 173 175 175 174 176 176 174 174 171 168 170 172 174 178 175 169 168 172 176 182 187 189 190 188 184 172 161 157 152 141 131 135 138 133 134 134 133 130 121 112 93 83 76 74 114 133 117 101 101 102 100 100 103 106 107 106 106 104 101 100 99 97 96 95 95 95 93 91 92
138 138 142 146 152 149 143 145 147 151 162 170 169 167 168 172 176 177 177 176 178 178 175 178 177 174 175 177 177 179 177 170 163 163 171 181 186 188 188 187 186 178 168 160 157 153 144 141 143 142 143 141 139 132 120 113 93 88 60 60 125 139 117 105 102 102 100 101 108 110 111 109 106 104 103 101 100 100 99 97 95 94 93 92 93
144 147 153 154 152 150 151 158 160 158 161 162 161 165 171 175 177 176 176 178 180 177 177 181 181 179 180 180 177 176 176 172 168 167 171 178 182 184 184 187 184 174 169 163 161 161 156 149 147 150 152 147 144 136 127 124 100 93 33 60 136 143 120 112 99 99 101 102 108 109 109 108 106 105 104 103 101 101 100 97 94 93 93 93 95
150 151 155 153 149 154 162 166 165 164 163 160 158 164 172 177 177 175 176 179 180 179 180 183 182 182 183 181 176 175 174 171 172 170 169 172 176 179 178 176 171 167 166 165 166 167 166 159 148 153 163 161 155 156 180 185 123 113 31 87 135 141 121 115 98 99 105 105 107 107 106 105 108 107 103 103 98 94 92 90 89 86 85 85 87
144 134 143 151 152 157 164 166 166 168 163 158 159 164 169 174 176 174 179 180 181 184 185 187 187 185 187 185 179 177 174 170 169 165 164 168 170 172 163 145 147 158 160 161 168 173 171 164 153 150 165 171 168 184 211 212 184 213 36 96 130 131 118 111 98 104 107 107 108 106 105 100 104 106 106 105 100 97 92 89 88 84 83 82 82
131 133 144 152 158 163 168 168 167 166 160 158 163 168 168 172 175 176 181 183 183 188 189 190 190 188 190 190 187 183 178 171 166 164 164 166 164 161 151 139 136 147 153 149 158 174 175 170 167 164 172 180 190 213 218 213 210 238 2 104 123 117 115 109 97 106 108 113 116 111 107 101 103 105 108 107 103 103 99 96 94 88 87 84 77
135 149 149 154 165 169 173 172 168 166 161 161 169 174 171 172 176 178 182 184 185 189 191 192 189 187 188 191 192 186 182 175 168 168 167 165 164 160 161 165 152 149 159 156 158 175 177 176 174 176 189 198 209 230 224 212 225 229 60 107 119 111 117 119 103 103 113 125 123 118 115 110 110 107 107 106 102 104 104 103 98 89 85 84 76
153 152 150 159 167 168 172 171 168 167 165 166 172 177 176 175 178 179 182 184 186 190 193 194 189 185 185 187 191 188 185 181 172 172 172 168 166 166 175 186 180 171 172 175 183 186 180 183 185 190 207 212 219 234 225 208 206 183 107 98 128 125 129 128 108 98 121 137 133 128 124 115 112 112 113 112 110 110 109 106 100 93 84 81 79
166 154 155 162 166 166 170 170 169 169 168 169 174 177 179 178 178 180 184 185 186 190 196 198 192 185 187 189 190 187 184 182 176 175 175 172 170 173 180 185 185 184 175 174 190 197 192 197 207 220 218 213 220 225 215 196 179 169 123 100 135 141 140 129 109 99 132 147 143 136 129 121 119 117 117 115 116 117 114 109 102 97 91 86 85
176 163 160 163 168 168 166 168 171 171 169 169 173 177 180 180 178 180 184 186 186 189 196 199 194 187 189 192 191 186 183 181 178 176 178 176 174 173 173 174 175 178 181 177 186 202 199 202 220 230 213 210 212 201 181 163 160 168 148 115 134 147 145 131 118 121 144 158 150 139 133 130 128 119 116 115 118 122 119 116 111 100 95 95 94
180 167 163 164 168 168 165 167 168 167 168 169 172 175 178 181 182 183 184 186 186 186 189 192 193 191 191 193 191 186 183 183 181 178 178 175 171 165 159 162 174 182 189 192 193 189 187 198 216 213 186 181 175 147 108 113 136 147 150 132 135 144 141 136 136 137 146 161 154 144 139 135 131 121 118 119 121 125 125 121 112 96 89 90 93
182 165 164 165 165 166 165 169 168 166 168 170 171 171 174 180 185 189 189 190 189 184 184 187 192 195 194 193 190 186 184 184 181 177 173 171 168 161 156 160 179 191 193 198 197 182 187 204 220 187 152 155 153 128 110 131 141 129 136 136 141 147 148 149 149 147 151 158 154 150 146 140 134 123 120 123 122 124 121 114 106 96 92 89 88
189 163 164 168 166 165 162 167 168 166 167 167 169 169 171 178 184 189 190 193 195 189 188 189 192 195 193 190 188 184 182 180 179 175 169 167 166 164 166 165 178 196 196 198 192 184 195 205 228 164 132 142 149 130 136 153 137 132 133 136 148 153 156 158 155 155 158 159 157 155 150 146 142 131 125 125 122 120 115 110 108 104 101 95 90
203 171 168 170 165 165 164 165 162 163 162 158 163 168 172 180 183 185 188 192 196 196 196 195 194 196 192 186 184 182 181 179 179 173 164 162 165 171 181 181 192 198 191 193 191 190 198 183 162 143 126 133 141 127 140 145 132 137 134 139 153 155 156 158 158 160 162 164 161 155 150 148 145 138 132 128 123 119 112 106 102 100 100 97 89
214 186 172 170 164 164 168 167 162 163 157 149 157 165 173 180 179 180 185 191 195 197 198 195 193 197 194 187 183 182 182 181 180 176 170 171 172 175 188 192 194 191 184 190 189 182 200 185 125 128 145 161 145 131 135 137 138 140 134 145 156 153 154 154 156 160 163 167 163 156 153 147 143 139 134 130 122 115 106 97 94 94 99 102 94
202 202 177 169 165 164 169 166 163 166 158 149 155 161 170 177 176 177 182 188 193 197 196 191 190 195 195 188 185 184 181 180 183 180 175 179 182 185 194 197 194 189 185 187 181 164 186 177 132 129 166 169 152 145 141 135 137 137 139 156 155 149 154 154 155 159 161 166 163 158 156 148 143 138 133 129 120 112 103 93 87 89 95 103 105
178 202 186 169 167 165 165 161 161 166 160 153 156 161 170 178 182 178 178 183 186 191 194 191 190 193 192 187 185 184 180 180 184 180 174 179 188 194 196 196 203 198 187 184 183 170 155 155 155 152 164 170 160 154 148 139 135 135 145 157 149 145 150 152 159 161 161 167 165 159 154 149 146 141 136 130 122 115 102 90 83 87 91 92 97
164 192 194 172 167 162 160 158 157 162 161 155 155 159 165 178 190 183 177 178 177 185 191 192 194 193 190 187 185 183 181 184 188 183 180 187 190 190 186 187 207 207 192 191 192 186 164 157 166 160 159 167 157 147 150 146 131 127 137 145 146 149 145 149 162 162 162 166 164 158 151 145 142 141 141 133 125 118 104 93 85 89 91 89 94
154 181 198 178 167 159 158 159 158 163 164 159 158 160 164 173 187 188 182 183 181 183 187 191 196 194 190 189 187 186 185 189 193 188 188 194 189 187 183 183 206 208 195 196 197 195 187 175 164 158 160 162 152 146 151 148 129 120 124 126 132 139 140 153 160 157 158 158 158 155 149 146 140 138 139 133 127 120 115 108 94 93 93 91 96
148 164 195 178 167 161 158 160 163 167 166 165 165 165 167 174 183 188 187 188 189 185 186 191 195 194 190 189 189 190 191 192 196 194 193 194 189 189 187 188 205 205 192 193 198 199 193 187 169 158 161 161 154 151 150 145 137 134 131 118 113 122 134 151 152 151 153 152 155 154 150 149 144 139 137 133 129 127 130 124 106 98 93 94 103
142 144 181 177 170 164 160 164 168 170 169 170 169 167 168 173 182 187 186 188 189 189 191 191 195 196 188 187 190 192 195 196 197 196 193 191 190 190 189 195 205 203 197 195 199 200 190 182 170 161 160 157 154 158 157 153 150 142 133 123 122 123 123 139 150 153 152 151 154 158 159 155 148 147 141 132 131 133 136 135 123 112 104 106 112
137 144 181 187 178 167 161 168 173 174 176 175 170 168 169 173 181 187 188 190 187 186 188 188 195 197 187 187 192 193 194 195 196 194 190 191 195 196 195 201 208 205 203 203 202 199 191 181 172 168 167 158 154 163 165 160 159 151 133 117 133 129 138 171 163 153 159 164 163 164 167 160 152 154 151 140 135 133 134 139 136 122 116 117 118
147 163 185 191 184 170 162 166 176 181 184 180 173 170 169 169 172 175 183 191 190 184 179 180 190 193 189 189 192 195 194 193 195 193 192 198 203 205 202 204 210 205 201 205 205 202 199 189 176 173 177 170 163 167 167 161 164 163 149 138 136 134 188 166 153 141 179 188 184 167 166 162 156 154 151 145 138 131 131 141 139 125 123 124 122
162 175 186 189 182 173 166 166 173 182 186 183 178 173 168 165 163 162 171 179 184 187 183 179 183 186 190 190 189 193 195 193 193 193 197 205 209 208 204 204 207 205 202 199 197 199 201 192 181 177 181 181 174 170 168 163 168 174 169 163 166 184 165 153 146 131 173 194 199 173 166 159 156 154 149 144 139 135 134 140 140 131 132 131 124
174 182 186 185 178 171 171 170 169 173 181 182 180 174 167 165 165 164 167 171 177 186 189 185 181 183 187 186 186 190 193 191 187 189 199 206 208 205 199 198 196 199 206 201 191 193 196 194 190 183 178 181 181 175 170 167 171 179 181 177 183 174 163 158 158 148 139 188 180 169 169 169 175 166 150 143 144 143 139 142 144 142 142 137 129
179 184 183 181 174 169 170 174 171 170 174 179 179 177 171 168 169 167 168 173 177 181 187 187 183 183 185 183 184 187 189 190 188 191 202 206 206 203 197 191 186 193 205 202 192 185 185 191 192 187 181 182 189 184 174 172 174 171 170 171 166 164 164 164 164 150 131 119 156 169 170 170 181 168 150 143 148 149 149 149 148 146 146 146 143
185 186 181 177 173 169 169 177 180 171 170 176 178 178 178 173 170 169 171 175 176 179 184 185 184 185 186 184 184 186 189 192 193 197 205 207 205 204 200 191 181 188 198 201 195 175 179 193 188 184 188 189 195 193 181 177 179 171 164 155 145 153 158 161 161 149 136 136 151 203 146 127 143 151 146 144 146 151 157 156 149 145 144 143 145
196 189 180 176 174 172 170 176 186 176 167 171 174 177 182 179 173 171 172 173 173 175 179 181 183 185 186 186 188 191 191 190 191 198 203 203 205 204 201 193 184 185 195 204 192 167 177 199 192 184 189 191 193 195 187 183 182 174 169 158 145 148 149 151 155 150 145 142 142 165 142 122 126 140 146 151 154 158 162 160 155 151 144 138 142
210 193 179 176 175 176 171 171 184 181 168 169 173 178 183 181 177 173 172 174 172 171 173 176 179 182 183 186 190 191 191 186 184 194 197 195 198 196 194 193 187 183 186 191 179 167 181 199 198 189 186 188 190 191 190 188 185 179 176 172 161 158 158 157 159 157 154 146 138 144 143 132 130 141 148 151 160 166 165 162 159 156 148 140 144
Height
775 775 777 778 780 780 782 782 784 785 787 789 790 791 792 793 794 795 795 797 798 799 800 802 803 805 806 807 809 810 811 812 814 815 816 818 818 819 820 820 821 821 822 823 823 823 824 824 824 824 824 825 825 825 825 826 826 827 827 827 827 828 827 827 827 827 827 827 827 827 828 828 828 828 829 829 829 829 829 829 829 830 830 831 831
774 776 777 778 780 780 783 783 785 786 787 789 790 792 793 794 795 796 796 797 799 800 801 803 804 806 807 808 810 811 812 813 815 816 817 819 819 820 821 822 822 823 823 824 825 825 826 826 826 826 826 826 826 827 827 828 828 828 829 829 830 830 829 829 829 829 829 828 829 829 830 830 830 830 831 831 831 831 831 831 831 831 832 832 832
773 776 777 779 780 781 783 783 785 786 788 790 791 792 793 795 795 797 797 798 799 801 802 803 805 807 808 810 811 812 814 815 816 817 819 819 820 822 822 823 824 825 825 826 826 827 827 827 828 827 828 827 828 828 828 829 829 830 830 831 831 832 832 831 831 831 831 830 831 831 831 832 832 833 833 833 833 833 833 833 833 832 833 833 833
773 776 778 779 780 781 782 783 785 786 789 790 792 793 794 796 797 798 798 800 801 802 803 805 807 808 810 811 812 813 815 816 817 819 820 820 822 823 823 824 825 826 827 827 828 828 829 829 829 829 829 828 829 829 829 830 830 831 831 832 833 833 834 833 833 832 833 832 833 833 833 834 834 835 835 835 835 835 835 835 835 834 834 834 833
773 776 778 779 781 782 782 784 785 787 789 791 793 794 795 796 798 799 799 801 802 804 805 806 808 809 811 812 813 814 816 817 818 820 821 822 823 824 825 826 827 828 828 829 829 830 830 830 830 830 830 829 830 830 830 831 831 832 833 834 835 835 835 835 835 834 834 834 834 834 835 835 835 836 837 837 837 837 837 837 837 836 836 835 835
773 776 778 780 781 782 783 784 786 788 789 791 793 795 796 798 799 800 801 802 804 805 806 808 809 810 812 813 814 816 817 818 819 821 822 823 824 825 826 827 828 829 830 831 831 831 831 831 831 831 831 830 831 831 832 832 833 834 835 836 837 837 837 837 837 836 836 836 836 835 836 836 837 838 838 838 838 838 838 838 838 838 838 837 836
773 776 779 780 782 782 784 785 786 788 790 792 794 796 797 799 801 802 803 804 805 807 808 809 810 812 813 814 816 817 818 819 821 822 823 824 825 827 828 829 830 831 831 832 832 832 833 833 833 832 831 831 832 832 833 833 834 835 836 837 838 839 839 839 838 837 837 838 837 837 838 837 838 839 839 839 839 839 839 839 839 839 838 838 837
774 776 778 780 782 783 784 785 787 789 791 793 795 797 799 800 802 803 804 805 807 808 810 811 812 813 814 816 817 818 819 821 822 823 824 825 827 828 829 830 831 832 833 833 833 833 834 834 834 833 832 832 833 833 834 835 835 836 837 838 839 839 840 839 838 837 837 839 839 838 839 839 840 840 841 841 840 840 840 840 839 839 839 839 838
775 776 778 780 781 783 784 786 788 789 792 794 796 798 800 801 803 804 805 806 808 810 811 812 813 815 816 817 818 819 820 822 823 824 825 826 828 829 830 831 832 833 834 834 834 835 835 835 835 834 833 833 834 834 835 836 836 837 838 839 839 840 840 840 839 838 837 839 840 839 840 840 841 842 843 842 842 842 841 841 840 841 840 840 840
775 776 778 780 781 783 785 787 788 791 793 795 797 799 801 803 804 806 807 808 809 811 812 814 815 816 817 818 819 821 821 823 824 825 826 827 828 830 831 832 833 834 835 835 835 836 836 836 836 835 835 834 835 835 836 837 837 838 839 839 840 840 840 841 841 840 839 840 840 840 841 841 842 843 844 844 844 843 843 842 842 843 842 842 841
775 777 779 780 782 784 785 788 789 792 794 796 799 801 803 804 805 807 808 809 810 812 813 815 816 817 818 819 820 821 823 824 825 826 827 828 829 831 832 833 834 835 835 836 836 837 837 837 837 836 836 835 836 836 837 838 839 839 840 840 841 841 841 841 842 841 841 841 841 841 842 843 843 844 845 845 845 845 845 844 844 844 844 843 843
776 778 779 781 783 785 787 789 791 793 795 798 800 802 804 805 807 808 809 810 811 813 814 816 817 818 819 820 821 822 824 825 826 827 828 829 830 832 833 834 835 836 836 837 837 837 838 838 838 837 837 836 837 837 838 839 840 841 841 842 842 842 842 842 842 842 842 842 843 843 844 845 845 846 846 847 846 846 846 846 845 845 845 845 845
776 778 779 782 784 787 788 790 792 795 797 799 802 804 805 806 808 809 810 811 812 814 815 816 818 819 820 821 822 823 824 825 827 828 829 830 831 833 833 835 835 836 837 837 838 838 839 839 839 838 838 838 838 839 840 841 841 842 843 843 843 843 843 843 843 842 843 843 844 845 846 846 847 847 848 848 848 848 848 847 847 847 847 847 847
776 777 779 782 785 788 789 792 794 796 799 801 803 805 806 808 809 810 811 812 813 815 815 817 818 820 821 822 823 824 825 826 827 828 829 831 832 833 834 835 836 837 838 838 839 839 840 840 840 839 839 839 839 840 841 842 842 843 844 844 844 845 845 844 843 843 844 844 845 847 847 848 848 848 849 849 849 849 849 849 849 848 849 848 848
776 778 780 783 786 789 791 793 795 798 800 802 804 806 807 809 810 811 812 813 814 815 816 818 819 821 821 823 824 824 826 826 828 829 830 831 832 834 835 836 836 837 838 839 840 840 841 841 841 841 841 841 841 842 842 843 844 844 845 845 845 845 845 845 844 844 845 846 847 848 848 849 849 850 850 850 850 850 850 850 850 850 850 850 849
776 778 781 784 787 790 792 795 797 800 801 804 805 807 809 810 811 812 813 814 815 816 817 818 820 821 822 823 824 825 826 827 828 829 831 832 833 834 835 837 837 838 839 840 840 841 841 842 842 842 842 842 843 843 844 844 845 845 845 846 846 845 845 845 845 845 846 847 848 849 850 850 851 851 851 851 852 852 852 852 852 852 852 851 851
777 780 782 785 789 791 794 797 799 801 803 805 807 808 810 811 812 813 814 815 816 817 818 819 820 821 823 824 825 825 826 828 829 830 831 832 834 835 836 837 838 839 840 840 841 841 842 843 843 844 844 844 844 845 845 845 845 846 846 847 846 846 846 846 846 847 848 849 849 851 851 852 852 853 853 853 853 853 853 853 853 853 853 853 852
778 781 783 787 790 793 796 799 801 803 805 807 809 810 811 812 813 814 815 815 816 817 818 819 820 822 823 824 825 826 827 828 829 830 831 833 834 835 836 838 838 839 840 841 842 842 843 843 844 845 845 845 845 846 846 846 846 847 847 847 847 847 847 847 847 848 849 850 850 851 852 853 853 854 854 854 854 854 854 854 854 854 854 854 853
780 782 785 789 793 796 798 801 803 805 807 808 810 811 813 814 814 815 816 816 817 818 819 820 821 822 823 824 825 826 827 828 829 831 832 833 834 836 837 838 839 840 841 842 842 843 843 844 845 845 845 846 846 847 847 847 847 847 848 848 848 848 848 848 849 849 850 851 851 852 853 854 854 854 855 855 855 855 855 855 855 855 855 855 855
783 785 788 792 795 798 800 803 805 807 809 810 811 812 813 814 815 816 817 818 818 819 820 820 821 822 823 824 826 827 828 829 830 831 832 833 834 836 837 838 839 840 841 842 842 843 844 845 846 846 846 846 847 848 848 849 849 849 849 849 849 849 849 849 850 850 851 852 852 853 854 855 855 855 855 856 856 856 856 856 856 856 856 855 855
786 788 791 795 798 800 802 805 807 808 810 810 812 812 814 815 816 817 818 819 819 820 820 821 822 822 824 825 826 827 828 829 830 831 832 833 834 835 837 838 839 841 842 842 843 844 845 846 846 847 847 847 848 849 850 850 850 850 851 851 850 850 850 850 850 851 852 853 854 854 855 855 856 856 856 856 856 857 857 857 857 857 857 856 856
788 791 794 796 799 801 802 805 807 809 810 810 811 812 814 815 816 817 818 819 819 820 820 821 822 823 824 825 826 827 828 829 830 831 832 833 834 835 837 838 839 840 842 842 843 844 845 846 847 847 848 848 849 850 851 851 851 851 852 852 852 851 851 851 851 852 853 854 855 855 856 856 856 857 857 857 857 857 857 858 858 858 857 857 857
789 792 795 797 798 799 801 804 807 809 808 808 810 811 812 813 814 816 817 818 819 820 821 822 822 823 824 825 826 827 828 830 830 831 832 833 834 835 837 838 839 840 841 842 843 844 845 846 847 848 848 849 850 850 851 851 852 852 853 854 853 852 852 852 852 853 854 855 856 857 857 857 857 857 858 858 858 858 858 859 859 859 858 858 858
788 790 791 792 793 795 799 801 801 801 802 805 808 811 812 812 813 814 816 817 818 819 820 822 822 823 824 825 826 827 829 830 831 832 832 833 834 836 836 837 839 840 841 842 843 844 845 846 847 848 849 850 850 851 852 852 852 852 853 854 854 854 853 853 854 854 856 857 857 858 858 858 858 858 858 858 858 859 859 859 859 859 859 859 859
785 787 786 787 790 793 796 795 794 793 795 800 805 809 811 811 812 813 815 816 817 819 820 821 822 822 823 825 826 827 829 829 830 831 832 833 834 836 836 837 838 839 840 841 843 844 845 846 847 848 849 850 851 851 852 852 853 853 854 854 854 854 854 854 855 856 857 858 859 859 859 859 859 859 859 859 859 859 860 860 860 860 860 859 859
781 783 786 788 790 792 792 792 793 793 794 796 799 803 806 808 810 812 814 815 816 817 819 820 821 822 823 824 826 827 828 829 830 831 832 833 834 835 836 837 838 839 840 841 843 844 845 846 847 848 849 850 851 851 852 853 853 854 855 855 855 855 855 855 855 856 858 859 860 860 860 860 860 859 859 859 859 860 860 860 860 860 860 860 860
781 785 788 791 792 792 792 793 794 795 796 797 796 797 800 804 807 810 812 813 814 816 818 819 820 821 822 824 825 826 827 828 829 830 832 833 834 835 836 837 838 839 840 841 842 843 845 845 846 848 849 850 851 852 852 853 854 854 855 856 857 857 857 857 856 856 858 860 861 861 861 861 860 860 860 860 860 861 861 861 861 861 861 861 861
783 786 789 789 792 793 792 792 793 794 797 798 798 796 796 800 804 806 808 811 813 815 817 818 819 820 821 823 824 826 827 827 829 830 831 832 834 835 836 837 838 839 839 841 842 844 845 845 846 848 849 850 851 852 852 853 854 854 855 857 858 859 858 857 857 857 859 861 862 862 862 862 861 861 861 861 861 861 862 862 863 863 862 862 862
786 785 787 789 790 790 790 791 792 793 794 795 797 797 796 798 800 803 805 808 811 813 815 817 818 819 820 822 823 825 826 827 828 830 831 832 834 835 836 837 838 839 840 841 842 844 845 845 847 848 849 850 851 852 852 853 854 854 855 856 859 861 859 858 857 857 860 862 863 863 863 863 862 861 861 862 862 862 863 863 863 863 863 863 863
791 787 787 788 787 788 789 790 791 791 792 792 794 796 796 797 799 801 803 806 809 811 813 815 817 818 819 821 822 824 825 826 827 829 831 832 833 834 836 837 838 839 840 841 842 844 845 846 846 847 848 849 850 851 852 853 853 854 855 856 860 862 860 858 857 858 862 863 864 864 864 864 863 863 862 862 863 863 864 864 864 864 864 864 864
794 789 786 786 785 786 787 789 790 789 790 791 793 795 797 798 799 800 802 804 807 809 811 813 815 817 818 820 821 823 824 826 827 829 830 831 833 834 836 837 838 839 840 841 842 843 845 846 846 847 848 848 849 850 851 852 851 853 854 856 859 860 860 857 856 859 863 865 865 865 865 865 864 863 863 863 864 864 865 865 865 865 864 864 864
793 789 785 784 783 784 786 788 788 789 790 792 793 795 798 800 801 801 802 803 805 807 809 811 814 816 818 819 820 822 824 825 827 828 829 831 833 834 836 837 838 839 840 841 842 843 844 845 846 846 847 848 849 850 851 851 851 852 854 856 858 858 857 856 857 860 864 866 866 866 865 865 864 864 864 864 864 865 865 865 865 865 865 865 865
791 789 785 783 782 782 785 786 788 790 791 792 794 796 798 800 802 802 803 803 805 806 808 810 812 815 816 817 819 820 822 824 826 828 829 831 832 834 835 836 838 839 840 840 841 842 843 845 845 846 846 847 848 850 853 853 853 854 855 856 857 857 857 857 858 860 864 867 867 866 866 865 865 864 864 864 865 865 865 865 865 865 865 865 865
791 788 786 784 782 782 784 786 788 791 792 793 795 797 798 800 801 802 803 804 805 806 807 809 811 813 815 816 817 819 821 823 825 827 829 831 832 833 834 836 837 838 839 840 840 841 842 843 844 845 846 847 848 849 852 854 854 855 856 856 857 857 857 859 860 861 864 866 866 866 866 865 865 865 865 865 865 865 865 865 865 865 865 865 865
792 789 787 785 784 784 785 786 789 792 793 795 797 798 799 799 800 802 802 803 804 806 807 809 810 812 813 814 815 818 820 823 825 827 828 830 831 832 834 835 836 837 838 839 840 841 842 843 845 845 846 847 849 849 851 852 853 855 856 855 857 858 858 860 862 862 864 865 866 866 866 865 865 865 866 866 866 866 866 866 866 866 866 866 866
795 791 788 787 786 786 787 788 790 792 794 796 798 799 799 799 800 801 802 803 803 805 806 808 809 811 812 813 814 817 819 822 824 825 827 829 830 832 834 835 836 837 837 838 839 840 841 843 845 845 847 849 850 850 851 852 853 855 855 855 858 860 860 861 862 863 863 865 866 866 866 865 865 865 866 866 866 866 866 866 866 866 866 866 866
797 795 790 790 788 788 789 789 792 794 795 798 799 800 800 800 801 801 802 802 803 804 805 806 808 809 811 812 813 816 819 821 822 824 825 828 830 832 834 835 836 836 836 837 838 840 841 843 844 845 848 849 849 850 852 853 853 852 854 857 859 860 860 860 862 862 863 864 865 866 866 865 865 865 866 866 866 866 866 866 867 867 867 867 867
795 798 794 791 790 790 791 791 793 795 797 799 800 802 802 802 802 803 803 803 803 803 804 806 807 808 809 811 813 815 818 819 822 823 824 827 829 832 833 835 836 836 836 836 837 839 841 842 843 844 846 848 849 850 851 852 852 851 854 859 860 859 860 860 862 862 863 864 864 865 865 865 865 865 866 866 867 866 866 867 867 867 867 867 867
789 796 795 792 791 792 792 794 795 796 798 800 801 802 803 804 803 803 803 803 803 803 804 805 806 808 809 810 812 815 817 818 821 823 825 828 830 832 833 834 836 836 835 835 837 838 840 841 842 842 844 847 849 850 850 851 852 853 856 859 860 859 860 861 862 862 863 863 864 864 864 865 865 865 866 866 867 867 867 867 867 867 867 867 868
783 791 795 793 792 793 794 796 797 797 799 800 801 802 803 803 802 802 803 803 803 804 805 805 806 807 809 811 813 814 816 818 820 823 825 828 830 832 832 833 836 836 834 835 836 837 839 841 842 843 844 847 849 849 849 851 852 854 856 858 859 859 860 861 862 862 863 863 863 864 864 864 865 865 866 867 867 867 867 867 868 868 868 868 868
778 787 794 795 793 794 796 797 798 798 798 799 800 800 801 801 800 801 801 802 803 804 804 805 805 806 808 811 813 814 816 817 820 822 824 827 829 831 832 833 836 836 834 834 835 836 838 840 841 843 844 845 847 849 849 849 851 853 856 858 859 860 860 862 863 863 862 863 863 863 864 864 865 865 866 867 867 867 867 868 869 869 869 869 868
775 784 794 796 794 794 795 796 797 797 797 797 798 798 799 799 798 799 800 801 802 803 803 804 804 806 808 811 813 814 815 817 819 821 824 826 828 830 830 832 835 835 833 833 834 835 837 839 841 843 843 844 846 848 849 849 850 852 854 858 860 861 862 863 863 863 863 863 863 863 864 864 864 865 866 867 867 868 868 868 869 869 869 869 869
773 783 794 796 792 790 791 794 796 796 796 796 797 798 799 799 798 798 799 800 802 803 804 804 805 806 808 811 813 814 816 817 819 821 823 825 827 828 829 832 835 833 832 832 833 834 836 838 840 841 842 844 845 847 848 848 850 851 853 856 859 861 863 864 863 863 863 863 863 863 863 864 864 865 866 867 868 868 868 869 870 870 870 870 870
771 780 791 793 789 785 785 791 795 796 796 796 797 798 798 799 799 799 799 801 803 804 805 806 806 807 809 811 813 814 816 818 819 821 822 824 825 827 828 831 833 832 831 832 832 834 835 837 839 839 839 841 844 846 847 848 848 849 852 855 858 860 863 863 862 863 863 863 863 863 863 864 864 866 867 867 868 868 869 870 870 870 870 870 870
767 773 783 787 786 783 780 785 791 795 796 796 797 798 798 799 800 800 800 800 802 803 805 806 806 807 809 810 812 814 816 818 819 820 821 823 824 825 827 830 831 830 831 832 833 834 835 836 838 838 838 840 841 844 846 847 847 848 849 852 856 859 860 861 861 863 863 863 863 863 863 864 865 866 867 867 868 868 869 870 870 871 871 871 871
762 767 776 781 781 779 776 777 783 790 794 795 797 797 797 798 798 799 799 799 800 801 803 804 805 806 808 810 812 813 815 817 819 820 821 821 823 824 826 828 829 829 830 832 833 834 834 835 836 837 838 839 840 842 844 846 847 848 848 848 851 853 855 857 860 863 864 863 863 863 863 864 865 866 867 867 868 868 869 870 871 871 871 871 871
759 765 772 775 774 774 774 774 776 783 789 792 795 796 796 796 797 797 797 798 799 800 801 803 804 805 807 810 811 813 815 817 818 819 820 821 822 823 825 827 828 828 829 831 833 834 834 834 834 836 838 839 840 841 842 844 846 847 848 848 848 849 851 853 856 859 862 863 863 863 864 864 865 867 867 867 867 868 870 870 870 871 871 872 872
757 763 769 770 770 770 772 775 775 775 781 788 792 794 795 795 796 796 797 797 798 799 801 802 804 806 807 809 811 813 815 816 818 819 819 820 821 822 824 826 828 829 828 830 832 833 833 833 834 836 838 838 839 840 841 843 844 846 847 848 848 849 850 851 852 854 858 862 864 864 865 864 864 866 867 867 868 869 870 870 870 871 871 872 872
758 762 765 766 768 768 769 773 775 772 773 782 788 791 794 794 794 795 796 797 798 799 800 802 804 805 807 809 810 812 814 815 817 818 819 820 821 822 823 825 827 828 828 829 831 832 832 832 833 835 836 837 839 840 841 842 843 845 846 847 848 849 851 852 853 853 855 859 863 864 864 863 864 866 867 867 868 869 870 870 870 871 871 872 873
761 761 762 763 765 766 765 768 774 773 771 776 784 788 791 792 793 793 794 796 796 798 800 801 803 804 806 808 809 811 813 815 816 817 819 820 820 821 822 824 826 827 827 828 830 831 831 831 832 834 835 836 838 840 841 842 843 845 846 847 847 848 850 851 853 854 855 857 860 863 863 862 864 866 867 867 868 870 870 870 870 871 871 872 873
767 764 762 762 763 764 765 767 773 776 773 774 781 785 788 790 791 791 792 793 794 796 798 799 801 803 804 806 808 810 812 814 815 816 818 819 820 821 822 824 826 827 828 829 830 830 830 831 832 833 835 836 837 839 840 842 843 845 846 847 847 847 848 849 851 853 854 856 858 861 862 863 864 865 867 868 868 869 870 870 870 871 871 872 873